Belen, NM

10:47 AM MDT on April 28, 2017 (GMT -0600)
Belen

Weather History for KE80 - December, 2013

Change the Weather History Date:

Tuesday, December 3, 2013

  Actual Average (KABQ) Record (KABQ)
Temperature  
Mean Temperature 46 °F -  
Max Temperature 68 °F 51 °F 65 °F (1917)
Min Temperature 24 °F 26 °F 12 °F (1934)
Degree Days  
Heating Degree Days 19    
Moisture  
Dew Point 22 °F    
Average Humidity 48    
Maximum Humidity 94    
Minimum Humidity 14    
Precipitation  
Precipitation 0.00 in - - ()
Sea Level Pressure  
Sea Level Pressure 29.77 in    
Wind  
Wind Speed 7 mph (South)    
Max Wind Speed 18 mph    
Max Gust Speed 31 mph    
Visibility 10 miles    
Events      
Averages and records for this station are not official NWS values.
T = Trace of Precipitation, MM = Missing Value Source: NWS Daily Summary

Daily Weather History Graph

Daily Weather History Graph

Search for Another Location

Airport or City:

Trip Planner

Search our weather history database for the weather conditions in past years. The results will help you decide how hot, cold, wet, or windy it might be!

Date:

Astronomy

Dec. 03, 2013 Rise Set
Actual Time 6:58 AM MST 4:56 PM MST
Civil Twilight 6:30 AM MST 5:24 PM MST
Nautical Twilight 5:59 AM MST 5:55 PM MST
Astronomical Twilight 5:28 AM MST 6:25 PM MST
Moon 7:31 AM MST (12/3) 6:01 PM MST (12/3)
Length of Visible Light 10h 53m
Length of Day
9h 58m
New Moon, 1% of the Moon is Illuminated
Dec 3
New Moon
Dec 9
First Quarter
Dec 17
Full
Dec 25
Last Quarter
Jan 1
New

Hourly Weather History & Observations

Time (MST) Temp. Windchill Dew Point Humidity Pressure Visibility Wind Dir Wind Speed Gust Speed Precip Events Conditions
12:15 AM 30.0 °F 23.2 °F 27.7 °F 91% 29.90 in 10.0 mi NW 6.9 mph - N/A   Clear
12:35 AM 30.0 °F 25.2 °F 27.0 °F 88% 29.90 in 10.0 mi North 4.6 mph - N/A   Clear
12:55 AM 30.0 °F 25.2 °F 28.4 °F 94% 29.89 in 10.0 mi NW 4.6 mph - N/A   Clear
1:15 AM 30.4 °F - 27.1 °F 88% 29.90 in 10.0 mi Calm Calm - N/A   Clear
1:35 AM 30.4 °F - 27.7 °F 90% 29.89 in 10.0 mi Calm Calm - N/A   Clear
1:55 AM 28.2 °F - 25.7 °F 90% 29.89 in 10.0 mi Calm Calm - N/A   Clear
2:15 AM 29.8 °F 26.3 °F 26.8 °F 88% 29.87 in 10.0 mi SSE 3.5 mph - N/A   Clear
2:35 AM 30.7 °F - 26.8 °F 85% 29.88 in 10.0 mi Calm Calm - N/A   Clear
2:55 AM 29.1 °F 25.4 °F 25.3 °F 86% 29.87 in 10.0 mi South 3.5 mph - N/A   Clear
3:15 AM 31.6 °F 28.3 °F 26.4 °F 81% 29.86 in 10.0 mi South 3.5 mph - N/A   Clear
3:35 AM 30.4 °F 25.6 °F 26.6 °F 86% 29.85 in 10.0 mi SSE 4.6 mph - N/A   Clear
3:55 AM 30.4 °F - 26.4 °F 85% 29.85 in 10.0 mi Calm Calm - N/A   Clear
4:15 AM 27.7 °F 22.4 °F 24.1 °F 86% 29.85 in 10.0 mi East 4.6 mph - N/A   Clear
4:35 AM 26.6 °F 21.2 °F 23.4 °F 88% 29.84 in 10.0 mi NNW 4.6 mph - N/A   Clear
4:55 AM 27.3 °F - 25.2 °F 92% 29.84 in 10.0 mi Calm Calm - N/A   Clear
5:15 AM 26.4 °F - 23.9 °F 90% 29.84 in 10.0 mi Calm Calm - N/A   Clear
5:35 AM 24.1 °F - 22.1 °F 92% 29.84 in 10.0 mi Calm Calm - N/A   Clear
5:55 AM 26.8 °F - 24.8 °F 92% 29.84 in 10.0 mi Calm Calm - N/A   Clear
6:15 AM 25.9 °F - 23.9 °F 92% 29.85 in 10.0 mi Calm Calm - N/A   Clear
6:35 AM 25.7 °F - 23.7 °F 92% 29.85 in 10.0 mi Calm Calm - N/A   Clear
6:55 AM 26.4 °F 22.4 °F 24.4 °F 92% 29.85 in 10.0 mi WSW 3.5 mph - N/A   Clear
7:15 AM 25.9 °F 21.7 °F 23.2 °F 90% 29.85 in 10.0 mi SW 3.5 mph - N/A   Clear
7:35 AM 30.4 °F 26.9 °F 27.3 °F 88% 29.85 in 10.0 mi SW 3.5 mph - N/A   Clear
7:55 AM 32.5 °F - 30.0 °F 90% 29.85 in 10.0 mi Calm Calm - N/A   Clear
8:15 AM 35.2 °F 31.2 °F 31.3 °F 85% 29.85 in 10.0 mi SSW 4.6 mph - N/A   Clear
8:35 AM 39.2 °F 35.0 °F 31.8 °F 75% 29.85 in 10.0 mi South 5.8 mph - N/A   Clear
8:55 AM 42.4 °F 37.5 °F 29.7 °F 61% 29.86 in 10.0 mi South 8.1 mph - N/A   Clear
9:15 AM 44.8 °F 39.9 °F 29.8 °F 56% 29.85 in 10.0 mi South 9.2 mph - N/A   Clear
9:35 AM 48.9 °F - 28.4 °F 45% 29.84 in 10.0 mi South 9.2 mph - N/A   Clear
9:55 AM 50.2 °F - 26.8 °F 40% 29.84 in 10.0 mi South 10.4 mph - N/A   Clear
10:15 AM 53.6 °F - 25.9 °F 34% 29.83 in 10.0 mi South 15.0 mph - N/A   Clear
10:35 AM 55.8 °F - 25.5 °F 31% 29.83 in 10.0 mi South 13.8 mph - N/A   Clear
10:55 AM 56.8 °F - 24.4 °F 29% 29.81 in 10.0 mi South 10.4 mph - N/A   Clear
11:15 AM 58.6 °F - 24.4 °F 27% 29.80 in 10.0 mi South 11.5 mph - N/A   Clear
11:35 AM 59.2 °F - 24.3 °F 26% 29.78 in 10.0 mi South 12.7 mph - N/A   Clear
11:55 AM 61.5 °F - 24.3 °F 24% 29.76 in 10.0 mi South 13.8 mph - N/A   Clear
12:15 PM 64.2 °F - 22.8 °F 21% 29.74 in 10.0 mi South 13.8 mph - N/A   Clear
12:35 PM 64.2 °F - 23.0 °F 21% 29.73 in 10.0 mi South 17.3 mph 24.2 mph N/A   Clear
12:55 PM 64.9 °F - 20.3 °F 18% 29.72 in 10.0 mi South 18.4 mph 23.0 mph N/A   Clear
1:15 PM 65.7 °F - 19.9 °F 17% 29.70 in 10.0 mi SSE 16.1 mph 21.9 mph N/A   Clear
1:35 PM 66.2 °F - 21.0 °F 18% 29.69 in 10.0 mi SSE 13.8 mph 18.4 mph N/A   Clear
1:55 PM 65.7 °F - 20.8 °F 18% 29.68 in 10.0 mi South 12.7 mph - N/A   Clear
2:15 PM 66.0 °F - 20.8 °F 18% 29.67 in 10.0 mi SE 12.7 mph - N/A   Clear
2:35 PM 66.9 °F - 21.2 °F 18% 29.66 in 10.0 mi SE 12.7 mph - N/A   Clear
2:55 PM 68.7 °F - 19.4 °F 15% 29.65 in 10.0 mi SSW 9.2 mph - N/A   Clear
3:15 PM 68.9 °F - 17.8 °F 14% 29.65 in 10.0 mi SW 17.3 mph 27.6 mph N/A   Clear
3:35 PM 68.4 °F - 19.0 °F 15% 29.65 in 10.0 mi SSW 17.3 mph 24.2 mph N/A   Clear
3:55 PM 65.5 °F - 20.5 °F 18% 29.64 in 10.0 mi South 15.0 mph 19.6 mph N/A   Clear
4:15 PM 64.4 °F - 19.2 °F 18% 29.64 in 10.0 mi SSW 11.5 mph - N/A   Clear
4:35 PM 63.3 °F - 16.9 °F 17% 29.64 in 10.0 mi SW 15.0 mph - N/A   Clear
4:55 PM 58.5 °F - 16.7 °F 20% 29.66 in 10.0 mi SSW 11.5 mph - N/A   Clear
5:15 PM 55.2 °F - 17.1 °F 22% 29.66 in 10.0 mi SSW 12.7 mph - N/A   Clear
5:35 PM 55.6 °F - 17.1 °F 22% 29.67 in 10.0 mi South 12.7 mph - N/A   Clear
5:55 PM 54.5 °F - 17.4 °F 23% 29.68 in 10.0 mi South 13.8 mph - N/A   Clear
6:15 PM 54.5 °F - 17.6 °F 23% 29.69 in 10.0 mi South 12.7 mph - N/A   Clear
6:35 PM 53.8 °F - 17.6 °F 24% 29.69 in 10.0 mi South 13.8 mph - N/A   Clear
6:55 PM 54.0 °F - 17.4 °F 24% 29.69 in 10.0 mi South 16.1 mph - N/A   Clear
7:15 PM 52.7 °F - 17.1 °F 25% 29.69 in 10.0 mi South 15.0 mph 18.4 mph N/A   Clear
7:35 PM 52.9 °F - 17.2 °F 25% 29.69 in 10.0 mi SSW 11.5 mph - N/A   Clear
7:55 PM 52.2 °F - 16.9 °F 25% 29.69 in 10.0 mi SSW 12.7 mph - N/A   Clear
8:15 PM 48.4 °F - 17.2 °F 29% 29.70 in 10.0 mi SSW 5.8 mph - N/A   Clear
8:35 PM 49.6 °F - 16.7 °F 27% 29.70 in 10.0 mi SSE 4.6 mph - N/A   Clear
8:55 PM 50.7 °F - 16.5 °F 26% 29.70 in 10.0 mi SE 5.8 mph - N/A   Clear
9:15 PM 48.7 °F - 16.5 °F 28% 29.69 in 10.0 mi Calm Calm - N/A   Clear
9:35 PM 46.6 °F - 16.5 °F 30% 29.70 in 10.0 mi Calm Calm - N/A   Clear
9:55 PM 51.1 °F - 16.5 °F 25% 29.70 in 10.0 mi SSW 18.4 mph 23.0 mph N/A   Clear
10:15 PM 52.7 °F - 16.2 °F 24% 29.71 in 10.0 mi SSW 18.4 mph 31.1 mph N/A   Clear
10:35 PM 51.6 °F - 16.2 °F 25% 29.72 in 10.0 mi SSW 15.0 mph 21.9 mph N/A   Clear
10:55 PM 52.7 °F - 16.5 °F 24% 29.72 in 10.0 mi South 16.1 mph 24.2 mph N/A   Clear
11:15 PM 51.3 °F - 16.9 °F 26% 29.72 in 10.0 mi South 13.8 mph - N/A   Clear
11:35 PM 50.2 °F - 17.2 °F 27% 29.72 in 10.0 mi SSW 12.7 mph - N/A   Clear
11:55 PM 50.9 °F - 16.7 °F 26% 29.72 in 10.0 mi SSW 11.5 mph 20.7 mph N/A   Clear